Time,TemperatureF,DewpointF,PressureIn,WindDirection,WindDirectionDegrees,WindSpeedMPH,WindSpeedGustMPH,Humidity,HourlyPrecipIn,Conditions,Clouds,dailyrainin,SoftwareType,DateUTC
2013-03-15 06:32:00,66.0,57.0,29.96,WNW,284,11.0,15.0,74,0.00,,,0.00,,2013-03-15 16:32:00,
2013-03-15 06:42:00,66.0,57.0,29.96,WNW,284,11.0,15.0,74,0.00,,,0.00,,2013-03-15 16:42:00,
2013-03-15 06:52:00,66.0,57.0,29.97,WNW,286,11.0,15.0,74,0.00,,,0.00,,2013-03-15 16:52:00,
2013-03-15 07:01:00,66.0,58.0,29.97,WNW,292,10.0,14.0,75,0.00,,,0.00,,2013-03-15 17:01:00,
2013-03-15 07:11:00,66.0,58.0,29.97,WNW,292,10.0,14.0,75,0.00,,,0.00,,2013-03-15 17:11:00,
2013-03-15 07:22:00,66.0,58.0,29.97,WNW,301,8.0,15.0,75,0.00,,,0.00,,2013-03-15 17:22:00,
2013-03-15 07:32:00,66.0,58.0,29.98,WNW,295,7.0,12.0,75,0.00,,,0.00,,2013-03-15 17:32:00,
2013-03-15 07:42:00,66.0,58.0,29.98,WNW,295,7.0,12.0,75,0.00,,,0.00,,2013-03-15 17:42:00,
2013-03-15 07:52:00,66.0,57.0,29.97,West,277,7.0,13.0,74,0.00,,,0.00,,2013-03-15 17:52:00,
2013-03-15 08:02:00,67.0,58.0,29.98,WNW,294,10.0,16.0,74,0.00,,,0.00,,2013-03-15 18:02:00,
2013-03-15 08:11:00,67.0,58.0,29.98,WNW,294,10.0,16.0,74,0.00,,,0.00,,2013-03-15 18:11:00,
2013-03-15 08:21:00,67.0,58.0,29.98,WNW,292,10.0,16.0,73,0.00,,,0.00,,2013-03-15 18:21:00,
2013-03-15 08:31:00,67.0,58.0,29.98,NNW,338,8.0,15.0,72,0.00,,,0.00,,2013-03-15 18:31:00,
2013-03-15 08:42:00,67.0,58.0,29.98,NNW,338,8.0,15.0,72,0.00,,,0.00,,2013-03-15 18:42:00,
2013-03-15 08:52:00,67.0,58.0,29.98,West,281,10.0,17.0,72,0.00,,,0.00,,2013-03-15 18:52:00,
2013-03-15 09:01:00,68.0,58.0,29.99,WNW,302,11.0,19.0,71,0.00,,,0.00,,2013-03-15 19:01:00,
2013-03-15 09:12:00,68.0,58.0,29.99,WNW,302,11.0,19.0,71,0.00,,,0.00,,2013-03-15 19:12:00,
2013-03-15 09:22:00,68.0,58.0,29.99,NW,305,12.0,19.0,70,0.00,,,0.00,,2013-03-15 19:22:00,
2013-03-15 09:31:00,69.0,58.0,29.98,West,279,10.0,21.0,69,0.00,,,0.00,,2013-03-15 19:31:00,
2013-03-15 09:41:00,69.0,58.0,29.98,West,279,10.0,21.0,69,0.00,,,0.00,,2013-03-15 19:41:00,
2013-03-15 09:52:00,69.0,58.0,29.98,West,281,9.0,17.0,69,0.00,,,0.00,,2013-03-15 19:52:00,
2013-03-15 10:02:00,69.0,58.0,29.99,West,280,12.0,23.0,67,0.00,,,0.00,,2013-03-15 20:02:00,
2013-03-15 10:11:00,69.0,58.0,29.99,West,280,12.0,23.0,67,0.00,,,0.00,,2013-03-15 20:11:00,
2013-03-15 10:22:00,70.0,58.0,29.99,West,272,9.0,15.0,66,0.00,,,0.00,,2013-03-15 20:22:00,
2013-03-15 10:31:00,70.0,57.0,29.99,WNW,283,13.0,23.0,63,0.00,,,0.00,,2013-03-15 20:31:00,
2013-03-15 10:41:00,70.0,57.0,29.99,WNW,283,13.0,23.0,63,0.00,,,0.00,,2013-03-15 20:41:00,
2013-03-15 10:52:00,70.0,57.0,29.98,West,260,11.0,17.0,64,0.00,,,0.00,,2013-03-15 20:52:00,
2013-03-15 11:01:00,70.0,58.0,29.98,West,275,11.0,18.0,65,0.00,,,0.00,,2013-03-15 21:01:00,
2013-03-15 11:11:00,70.0,58.0,29.98,West,275,11.0,18.0,65,0.00,,,0.00,,2013-03-15 21:11:00,
2013-03-15 11:21:00,70.0,57.0,29.98,West,271,11.0,22.0,64,0.00,,,0.00,,2013-03-15 21:21:00,
2013-03-15 11:32:00,70.0,57.0,29.99,West,265,11.0,17.0,64,0.00,,,0.00,,2013-03-15 21:32:00,
2013-03-15 11:42:00,70.0,57.0,29.99,West,265,11.0,17.0,64,0.00,,,0.00,,2013-03-15 21:42:00,
2013-03-15 11:52:00,71.0,58.0,29.98,WNW,286,10.0,19.0,64,0.00,,,0.00,,2013-03-15 21:52:00,
2013-03-15 12:02:00,72.0,60.0,29.97,West,279,8.0,17.0,65,0.00,,,0.00,,2013-03-15 22:02:00,
2013-03-15 12:12:00,72.0,60.0,29.97,West,279,8.0,17.0,65,0.00,,,0.00,,2013-03-15 22:12:00,
2013-03-15 12:22:00,72.0,60.0,29.97,West,276,9.0,16.0,66,0.00,,,0.00,,2013-03-15 22:22:00,
2013-03-15 12:32:00,72.0,60.0,29.96,West,269,11.0,21.0,65,0.00,,,0.00,,2013-03-15 22:32:00,
2013-03-15 12:41:00,72.0,60.0,29.96,West,269,11.0,21.0,65,0.00,,,0.00,,2013-03-15 22:41:00,
2013-03-15 12:52:00,72.0,59.0,29.96,WNW,293,12.0,21.0,63,0.00,,,0.00,,2013-03-15 22:52:00,
2013-03-15 13:02:00,72.0,60.0,29.95,WSW,249,10.0,18.0,65,0.00,,,0.00,,2013-03-15 23:02:00,
2013-03-15 13:11:00,72.0,60.0,29.95,WSW,249,10.0,18.0,65,0.00,,,0.00,,2013-03-15 23:11:00,
2013-03-15 13:21:00,71.0,59.0,29.95,WSW,250,11.0,20.0,66,0.00,,,0.00,,2013-03-15 23:21:00,
2013-03-15 13:32:00,71.0,59.0,29.94,WNW,288,11.0,17.0,67,0.00,,,0.00,,2013-03-15 23:32:00,
2013-03-15 13:42:00,71.0,59.0,29.94,WNW,288,11.0,17.0,67,0.00,,,0.00,,2013-03-15 23:42:00,
2013-03-15 13:53:00,71.0,60.0,29.93,WNW,298,11.0,19.0,68,0.00,,,0.00,,2013-03-15 23:53:00,
2013-03-15 14:02:00,71.0,60.0,29.93,West,273,7.0,24.0,69,0.00,,,0.00,,2013-03-16 00:02:00,
2013-03-15 14:11:00,71.0,60.0,29.93,West,273,7.0,24.0,69,0.00,,,0.00,,2013-03-16 00:11:00,
2013-03-15 14:22:00,71.0,60.0,29.93,WNW,300,10.0,17.0,69,0.00,,,0.00,,2013-03-16 00:22:00,
2013-03-15 14:32:00,71.0,61.0,29.92,WNW,294,11.0,22.0,70,0.00,,,0.00,,2013-03-16 00:32:00,
2013-03-15 14:42:00,71.0,61.0,29.92,WNW,294,11.0,22.0,70,0.00,,,0.00,,2013-03-16 00:42:00,
2013-03-15 14:52:00,70.0,60.0,29.92,WNW,300,14.0,23.0,71,0.00,,,0.00,,2013-03-16 00:52:00,
2013-03-15 15:01:00,71.0,61.0,29.92,WNW,288,13.0,20.0,71,0.00,,,0.00,,2013-03-16 01:01:00,
2013-03-15 15:12:00,71.0,61.0,29.92,WNW,288,13.0,20.0,71,0.00,,,0.00,,2013-03-16 01:12:00,
2013-03-15 15:21:00,71.0,63.0,29.91,West,274,11.0,17.0,76,0.00,,,0.00,,2013-03-16 01:21:00,
2013-03-15 15:31:00,70.0,62.0,29.91,West,265,16.0,24.0,77,0.00,,,0.00,,2013-03-16 01:31:00,
2013-03-15 15:41:00,70.0,62.0,29.91,West,265,16.0,24.0,77,0.00,,,0.00,,2013-03-16 01:41:00,
2013-03-15 15:52:00,71.0,62.0,29.91,West,275,12.0,23.0,74,0.00,,,0.00,,2013-03-16 01:52:00,
2013-03-15 16:02:00,71.0,62.0,29.92,NNW,327,12.0,20.0,73,0.00,,,0.00,,2013-03-16 02:02:00,
2013-03-15 16:11:00,71.0,62.0,29.92,NNW,327,12.0,20.0,73,0.00,,,0.00,,2013-03-16 02:11:00,
2013-03-15 16:22:00,71.0,61.0,29.92,West,279,13.0,28.0,70,0.00,,,0.00,,2013-03-16 02:22:00,
2013-03-15 16:32:00,71.0,60.0,29.92,NNW,327,17.0,22.0,68,0.00,,,0.00,,2013-03-16 02:32:00,
2013-03-15 16:42:00,71.0,60.0,29.92,NNW,327,17.0,22.0,68,0.00,,,0.00,,2013-03-16 02:42:00,
2013-03-15 16:52:00,72.0,61.0,29.92,West,281,11.0,21.0,68,0.00,,,0.00,,2013-03-16 02:52:00,
2013-03-15 17:01:00,72.0,60.0,29.91,West,268,12.0,18.0,66,0.00,,,0.00,,2013-03-16 03:01:00,
2013-03-15 17:11:00,72.0,60.0,29.91,West,268,12.0,18.0,66,0.00,,,0.00,,2013-03-16 03:11:00,
2013-03-15 17:21:00,71.0,60.0,29.92,NW,312,10.0,18.0,69,0.00,,,0.00,,2013-03-16 03:21:00,
2013-03-15 17:32:00,71.0,61.0,29.93,WSW,249,9.0,17.0,70,0.00,,,0.00,,2013-03-16 03:32:00,
2013-03-15 17:42:00,71.0,61.0,29.93,WSW,249,9.0,17.0,70,0.00,,,0.00,,2013-03-16 03:42:00,
2013-03-15 17:53:00,70.0,59.0,29.93,WNW,290,10.0,18.0,69,0.00,,,0.00,,2013-03-16 03:53:00,
2013-03-15 18:02:00,70.0,59.0,29.93,WNW,296,15.0,20.0,67,0.00,,,0.00,,2013-03-16 04:02:00,
2013-03-15 18:12:00,70.0,59.0,29.93,WNW,296,15.0,20.0,67,0.00,,,0.00,,2013-03-16 04:12:00,
2013-03-15 18:22:00,70.0,59.0,29.93,West,267,10.0,18.0,68,0.00,,,0.00,,2013-03-16 04:22:00,
2013-03-15 18:32:00,70.0,59.0,29.93,WNW,290,14.0,22.0,68,0.00,,,0.00,,2013-03-16 04:32:00,
2013-03-15 18:42:00,70.0,59.0,29.93,WNW,290,14.0,22.0,68,0.00,,,0.00,,2013-03-16 04:42:00,
2013-03-15 18:52:00,69.0,59.0,29.94,West,278,14.0,20.0,70,0.00,,,0.00,,2013-03-16 04:52:00,
2013-03-15 19:02:00,69.0,59.0,29.94,WNW,292,8.0,15.0,70,0.00,,,0.00,,2013-03-16 05:02:00,
2013-03-15 19:12:00,69.0,59.0,29.94,WNW,292,8.0,15.0,70,0.00,,,0.00,,2013-03-16 05:12:00,
2013-03-15 19:21:00,69.0,58.0,29.95,WNW,300,8.0,13.0,68,0.00,,,0.00,,2013-03-16 05:21:00,
2013-03-15 19:32:00,69.0,60.0,29.95,West,277,11.0,18.0,72,0.00,,,0.00,,2013-03-16 05:32:00,
2013-03-15 19:42:00,69.0,60.0,29.95,West,277,11.0,18.0,72,0.00,,,0.00,,2013-03-16 05:42:00,
2013-03-15 19:52:00,69.0,60.0,29.96,WNW,287,9.0,17.0,73,0.00,,,0.00,,2013-03-16 05:52:00,
2013-03-15 20:02:00,69.0,60.0,29.96,West,266,10.0,16.0,73,0.00,,,0.00,,2013-03-16 06:02:00,
2013-03-15 20:11:00,69.0,60.0,29.96,West,266,10.0,16.0,73,0.00,,,0.00,,2013-03-16 06:11:00,
2013-03-15 20:21:00,69.0,60.0,29.97,WNW,288,9.0,17.0,74,0.00,,,0.00,,2013-03-16 06:21:00,
2013-03-15 20:32:00,68.0,60.0,29.97,West,280,8.0,14.0,75,0.00,,,0.00,,2013-03-16 06:32:00,
2013-03-15 20:41:00,68.0,60.0,29.97,West,280,8.0,14.0,75,0.00,,,0.00,,2013-03-16 06:41:00,
2013-03-15 20:52:00,68.0,60.0,29.97,WNW,286,8.0,11.0,75,0.00,,,0.00,,2013-03-16 06:52:00,
2013-03-15 21:01:00,68.0,60.0,29.98,WNW,282,6.0,9.0,75,0.00,,,0.00,,2013-03-16 07:01:00,
2013-03-15 21:11:00,68.0,60.0,29.98,WNW,282,6.0,9.0,75,0.00,,,0.00,,2013-03-16 07:11:00,
2013-03-15 21:22:00,68.0,59.0,29.98,West,278,4.0,10.0,74,0.00,,,0.00,,2013-03-16 07:22:00,
2013-03-15 21:31:00,68.0,59.0,29.99,WNW,283,0.0,8.0,74,0.00,,,0.00,,2013-03-16 07:31:00,
2013-03-15 21:41:00,68.0,59.0,29.99,WNW,283,0.0,8.0,74,0.00,,,0.00,,2013-03-16 07:41:00,
2013-03-15 21:52:00,68.0,59.0,29.98,NW,304,2.0,5.0,74,0.00,,,0.00,,2013-03-16 07:52:00,
2013-03-15 22:01:00,68.0,59.0,29.98,NW,304,2.0,5.0,74,0.00,,,0.00,,2013-03-16 08:01:00,
2013-03-15 22:12:00,68.0,59.0,29.98,NW,304,2.0,5.0,74,0.00,,,0.00,,2013-03-16 08:12:00,
2013-03-15 22:22:00,68.0,59.0,29.98,NW,304,2.0,5.0,74,0.00,,,0.00,,2013-03-16 08:22:00,